Regional Weather Roundup
Issued by NWS

Home | Current Version | Previous Version | Graphics & Text | Print | Product List | Glossary On
Versions: 1 2 3 4 5 6 7 8 9 10 11 12 13 14 15 16 17 18 19 20 21 22 23 24 25 26 27 28 29 30 31 32 33 34 35 36 37 38 39 40 41 42 43 44 45 46 47 48 49 50
000
ASUS45 KCYS 271810
RWRWY

WYOMING REGIONAL WEATHER ROUNDUP
NATIONAL WEATHER SERVICE CHEYENNE WY
1100 AM MST THU NOV 27 2014

NOTE:  "FAIR" INDICATES FEW OR NO CLOUDS BELOW 12,000 FEET
WITH NO SIGNIFICANT WEATHER AND/OR OBSTRUCTIONS TO VISIBILITY.

WYZ001-271900-
YELLOWSTONE NATIONAL PARK

CITY           SKY/WX    TMP DP  RH WIND       PRES   REMARKS
LK YELLOWSTONE   N/A     36  25  64 CALM      30.23F
6HR MIN TEMP:  28; 6HR MAX TEMP:  36;

W YELLOWSTONE  NOT AVBL

$$
WYZ002>013-054>058-071-098>099-271900-
NORTHERN WYOMING

CITY           SKY/WX    TMP DP  RH WIND       PRES   REMARKS
JACKSON        CLOUDY    45  27  49 S14       30.22S
CODY           PTSUNNY   54  25  32 W15G30    29.99F
GREYBULL       CLOUDY    27  24  89 E3        30.05F
6HR MIN TEMP:  22; 6HR MAX TEMP:  28;

WORLAND        CLOUDY    26  23  88 CALM      30.06F
6HR MIN TEMP:  18; 6HR MAX TEMP:  26;

SHERIDAN       CLOUDY    32  28  85 NE5       29.93F WCI  27
6HR MIN TEMP:  22; 6HR MAX TEMP:  32;

BUFFALO        CLOUDY    45  26  47 S9        29.96F
6HR MIN TEMP:  36; 6HR MAX TEMP:  46;

GILLETTE       CLOUDY    46  28  49 SW20      29.95F
6HR MIN TEMP:  25; 6HR MAX TEMP:  46;

HULETT           N/A    N/A N/A N/A MISG        N/A
NEWCASTLE      FAIR      30  23  74 CALM      30.04F

$$
WYZ014>020-022>026-101>103-271900-
CENTRAL WYOMING

CITY           SKY/WX    TMP DP  RH WIND       PRES   REMARKS
BIG PINEY      CLOUDY   N/A N/A N/A VRB5      30.33R
PINEDALE       CLOUDY    32  27  80 CALM      30.33S
DUBOIS         FAIR      43  25  49 NW20G29   30.19S
LANDER         PTSUNNY   43  26  51 CALM      30.10F
6HR MIN TEMP:  27; 6HR MAX TEMP:  49;

RIVERTON       CLOUDY    44  26  49 S3        30.11F
6HR MIN TEMP:  30; 6HR MAX TEMP:  46;

CASPER         PTSUNNY   46  24  42 SW26G37   30.09F
6HR MIN TEMP:  39; 6HR MAX TEMP:  46;

DOUGLAS        PTSUNNY   51  28  41 NW3       30.08F
6HR MIN TEMP:  22; 6HR MAX TEMP:  51;


$$
WYZ021-027>030-104>119-271900-
SOUTHERN WYOMING

CITY           SKY/WX    TMP DP  RH WIND       PRES   REMARKS
EVANSTON       MOSUNNY   49  21  33 S12       30.35S
6HR MIN TEMP:  34; 6HR MAX TEMP:  49;

FORT BRIDGER   FAIR      52  24  33 W15       30.35F
ROCK SPRINGS   CLOUDY    41  22  46 W8        30.32S
6HR MIN TEMP:  34; 6HR MAX TEMP:  41;

DIXON          FAIR      45  22  41 SW16G26   30.36S
RAWLINS        CLOUDY    46  20  35 W17G23    30.27F
6HR MIN TEMP:  38; 6HR MAX TEMP:  46;

SARATOGA       FAIR      46  19  34 SW20      30.28F
LARAMIE        PTSUNNY   46  18  32 SW24G32   30.23F
6HR MIN TEMP:  37; 6HR MAX TEMP:  48;

CHEYENNE       CLOUDY    52  19  27 W26G37    30.17F
6HR MIN TEMP:  43; 6HR MAX TEMP:  52;

TORRINGTON     PTSUNNY   34  32  92 SE3       30.08F
6HR MIN TEMP:  15; 6HR MAX TEMP:  34;

PINE BLUFFS    FAIR      46  27  46 W15       30.15R

$$


USA.gov is the U.S. government's official web portal to all federal, state and local government web resources and services.